Location: Agus-us
(14.2247°N, 120.8593°E)
Time: 18:28:54
(UTC+00:00)

Cosmos 1980 Rocket - Pass Details

Date: 13 December 2025
Orbit: 830 x 847 km, 71.0° (Epoch: 20 January)

Event Time Altitude Azimuth Distance (km) Brightness Sun altitude
Exits shadow 19:59:02 62° 83° (E) 931 2.5 -31.0°
Drops below altitude 10° 20:04:21 10° 153° (SSE) 2,431 5.1 -29.8°
Sets 20:06:48 0° 157° (SSE) 3,366 5.9 -29.2°
